Location: McCreary
(50.7746°N, 99.4937°W)
Time: 16:38:32
(UTC-05:00)

ISS - Visible Passes

Search period start: 19 May 2022 00:00
Search period end: 29 May 2022 00:00
Orbit: 415 x 421 km, 51.6° (Epoch: 19 May)

Date Brightness Start Highest point End Pass type
(mag) Time Alt. Az. Time Alt. Az. Time Alt. Az.
19 May -3.9 00:55:19 10° WNW 00:58:40 86° SSW 00:59:03 68° ESE visible
19 May -3.7 22:30:29 10° W 22:33:51 87° N 22:37:13 10° ENE visible
20 May -3.8 00:07:22 10° W 00:10:44 82° N 00:12:34 25° E visible
20 May -1.8 01:44:14 10° W 01:45:28 20° W 01:45:28 20° W visible
20 May -3.6 23:19:23 10° W 23:22:45 75° N 23:26:06 10° E visible
21 May -3.4 00:56:13 10° W 00:59:00 47° WSW 00:59:00 47° WSW visible
21 May -3.6 22:31:23 10° W 22:34:44 74° N 22:38:06 10° E visible
22 May -3.9 00:08:13 10° WNW 00:11:33 71° SSW 00:12:32 42° SE visible
22 May -1.0 01:45:26 10° W 01:45:26 10° W 01:45:26 10° W visible
22 May -3.8 23:20:13 10° WNW 23:23:34 87° SSW 23:26:04 17° ESE visible
23 May -2.1 00:57:10 10° W 00:58:59 23° WSW 00:58:59 23° WSW visible
23 May -3.7 22:32:11 10° W 22:35:33 81° N 22:38:54 10° E visible
24 May -3.3 00:09:02 10° W 00:12:12 39° SSW 00:12:31 38° SSW visible
24 May -3.6 23:20:57 10° W 23:24:14 54° SSW 23:26:04 23° SE visible
25 May -1.2 00:58:39 10° WSW 00:58:58 11° WSW 00:58:58 11° WSW visible
25 May -3.8 22:32:53 10° WNW 22:36:13 72° SSW 22:39:33 10° ESE visible
26 May -2.1 00:10:03 10° W 00:12:31 20° SW 00:12:31 20° SW visible
26 May -2.6 23:21:44 10° W 23:24:42 29° SSW 23:26:05 21° S visible
27 May -3.1 22:33:31 10° W 22:36:42 40° SSW 22:39:40 11° SE visible
28 May -1.6 23:22:59 10° WSW 23:24:53 14° SW 23:26:11 12° SSW visible
